This is the latest recevied weather packets stored in our database for station/object EA7OC-10. If no packets are shown the sender has not sent any weather packets the latest 10 day(s).
| Time | Temp. | Humidity | Pressure | Rain* | Wind** | Luminosity | Snow |
|---|---|---|---|---|---|---|---|
| 1778023791 | 17.22° C | 26% | 1013.7 hPa | - | - | - | - |
| 1778022891 | 18.33° C | 26% | 1013.7 hPa | - | - | - | - |
| 1778021991 | 19.44° C | 26% | 1013.7 hPa | - | - | - | - |
| 1778021090 | 18.89° C | 27% | 1013.5 hPa | - | - | - | - |
| 1778020190 | 18.33° C | 26% | 1013.5 hPa | - | - | - | - |
| 1778019287 | 20° C | 26% | 1013.7 hPa | - | - | - | - |
| 1778018383 | 21.11° C | 27% | 1013.6 hPa | - | - | - | - |
| 1778017482 | 21.11° C | 26% | 1013.3 hPa | - | - | - | - |
| 1778016582 | 21.11° C | 27% | 1013.3 hPa | - | - | - | - |
| 1778015681 | 20.56° C | 27% | 1013.3 hPa | - | - | - | - |
| 1778014781 | 20.56° C | 26% | 1013.4 hPa | - | - | - | - |
| 1778013881 | 20.56° C | 26% | 1013.3 hPa | - | - | - | - |
| 1778012981 | 20.56° C | 26% | 1013.2 hPa | - | - | - | - |
| 1778012081 | 21.11° C | 26% | 1013 hPa | - | - | - | - |
| 1778011180 | 21.11° C | 26% | 1012.9 hPa | - | - | - | - |
| 1778010280 | 22.22° C | 26% | 1012.8 hPa | - | - | - | - |
| 1778009380 | 22.78° C | 26% | 1012.5 hPa | - | - | - | - |
| 1778008478 | 23.89° C | 26% | 1012.5 hPa | - | - | - | - |
| 1778006685 | 26.11° C | 26% | 1012.4 hPa | - | - | - | - |
| 1778005785 | 27.78° C | 26% | 1012.3 hPa | - | - | - | - |
| 1778004885 | 28.89° C | 26% | 1012.2 hPa | - | - | - | - |
| 1778003985 | 30.56° C | 26% | 1012.2 hPa | - | - | - | - |
| 1778003085 | 30.56° C | 27% | 1012.2 hPa | - | - | - | - |
| 1778002185 | 31.67° C | 27% | 1012.2 hPa | - | - | - | - |
| 1778001285 | 32.22° C | 27% | 1012.3 hPa | - | - | - | - |
* Rain since midnight (hover to see other rain measurements)
** Current wind speed in m/s (hover to see current wind gust speed)